COSMOS 2251 DEB, 34474

Orbit data source: Space-Track

COSMOS 2251 DEB, 34474 is space debris in LEO originally from a launch on Wed, 16 Jun 1993 UTC launched from the Plesetsk Missile And Space Complex (PKMTR). The debris from Iridium 33, an American commercial communications satellite, has been tracked extensively since its accidental collision with the defunct Russian satellite Cosmos 2251 in 2009. This event, occurring at high speed in low Earth orbit (LEO), generated thousands of pieces of space debris, significantly increasing the risk of further collisions. The Iridium 33 debris cloud has impacted space traffic management and orbital debris mitigation strategies, making it a subject of ongoing study in space situational awareness.

Loading next visibility...
Identifier
34474, 1993-036TT
Orbit
LEO
Country
Flag of CISCIS
Related business
Manufacturer
Unknown
Mission
Spacecraft
Bus & Motor
Unknown
Mass
Unknown
Launch date (UTC)
1993-06-16 (33 years ago)
Launch vehicle
Unknown
Launch site
Plesetsk Missile And Space Complex (PKMTR)
Object type
Payload
Rocket body
Debris
Shape & HBR
Unknown shape, 0.1 m
Radar Cross Section
Small (<0.1 m²)

Expand to show TLE details & history
Last TLE update: 17 hours ago

TLE from 17 hours ago
0 COSMOS 2251 DEB
1 34474U 93036TT  25352.15797812  .00003751  00000-0  19088-2 0  9994
2 34474  74.0774 316.7183 0198770  29.1967 347.0941 14.06452432855858
Epoch: 2025-12-18T03:47Z
TLE epoch observation values (Epoch: 2025-12-18T03:47:29.309Z)
Latitude
15.13255°
Longitude
177.22956°
Altitude
733.078 km
Speed
7.562 km/s
True Right ascension
21h 24m 28s
True Declination
15° 02' 45"
Sunlit
Object was in daylight at epoch
Visualization orbit readout
Latitude
Unknown
Longitude
Unknown
Altitude
Unknown
Speed
Unknown
Apparent Right ascension
Unknown
Apparent Declination
Unknown
Sunlit
N/A
Visualization observer readout
Local Sidereal Time
19:14:45
Azimuth
Unknown
Elevation
Unknown
Doppler factor
Unknown
Orbital elements
Apogee altitude
1,013.244 km
Perigee altitude
725.134 km
Semi-major axis
7,247.326 km
Eccentricity
0.01988
Inclination
74.0774°
RAAN
316.7183°
Arg. of periapsis
29.1967°
True anomaly
346.57276°
Mean anomaly
347.0941°
Eccentric anomaly
346.83471°
Mean motion
3.51784 °/min
Orbital period
102.34 mins
BSTAR
0.0019088
Loading maneuver chart data...
Computing Atmospheric mass density...

Documentation

Showing up to 5 results
|